Probability
0 1 2 1 0 0 0 0 0 0 0 0 0 0 0 0 0 0 0 0 0 1 3 3 3 3 3 3 3 3 3 3 3 3 3 3 3 3 3 3 2 3 3 3 2 1 2 3 3
1 2 2 1 0 0 0 0 0 0 0 0 0 0 0 0 0 0 0 0 1 2 3 3 3 3 3 3 4 3 3 3 3 3 3 3 4 3 3 3 3 3 3 3 3 2 3 3 3
3 3 2 1 0 0 0 0 0 0 0 0 0 0 0 0 0 0 0 1 2 3 3 3 3 3 3 4 5 4 4 4 4 4 5 5 5 5 4 4 4 3 3 3 3 3 3 3 3
2 2 1 0 0 0 0 0 0 0 0 0 0 0 0 0 0 0 1 1 2 3 3 3 3 3 3 4 5 6 6 5 5 6 7 8 8 7 5 4 3 3 3 3 3 3 3 3 3
1 1 0 0 0 0 0 0 0 0 0 0 0 0 0 0 0 0 1 1 2 3 3 3 3 3 3 4 6 6 6 6 6 7 9 11 11 8 5 3 3 3 3 3 3 4 3 3 3
0 0 0 0 0 0 0 0 0 0 0 0 0 0 0 0 0 1 1 1 2 2 2 1 1 3 3 4 6 6 6 6 7 8 10 12 9 6 4 3 3 3 3 3 4 4 4 3 3
0 0 0 0 0 0 0 0 0 0 0 0 0 0 0 0 1 1 2 1 1 1 1 0 1 2 3 4 6 6 6 6 7 7 9 9 6 4 4 3 3 3 3 3 3 4 4 3 2
0 0 0 0 0 0 0 0 0 0 0 0 0 0 0 1 2 3 2 1 0 0 0 0 1 2 3 4 5 6 6 6 6 6 8 8 5 4 3 3 3 3 3 3 3 4 4 3 1
0 0 0 0 0 0 0 0 0 0 0 0 0 0 1 2 3 3 3 2 1 1 1 0 1 2 3 3 4 5 5 4 4 6 7 6 4 2 1 2 3 3 3 3 3 3 3 2 1
0 0 0 0 0 0 0 0 0 0 0 0 0 0 1 3 4 4 3 2 1 2 2 1 1 2 3 3 3 4 4 3 3 4 4 3 1 0 0 1 1 2 2 2 2 2 2 1 0
0 0 0 0 0 0 0 0 0 0 0 0 0 1 2 5 7 5 3 2 2 3 2 2 2 2 2 3 3 3 3 3 3 2 1 1 0 0 1 1 1 1 1 1 1 1 1 0 0
0 0 0 0 0 0 0 0 0 0 0 0 0 1 3 7 9 7 5 4 3 3 3 2 2 2 3 3 3 3 3 3 2 1 0 0 0 1 2 2 2 1 0 0 0 0 0 0 0
0 0 0 0 0 0 0 0 0 0 0 0 0 1 4 7 9 10 9 7 5 4 3 3 3 3 2 3 3 3 2 1 1 0 0 0 1 1 3 3 2 1 0 0 0 0 0 0 0
0 0 0 0 0 0 0 0 0 0 0 0 0 1 4 7 10 13 13 10 7 6 6 5 4 3 2 2 3 3 2 0 0 0 0 1 2 3 3 3 2 1 0 0 0 0 0 0 0
0 0 0 0 0 0 0 0 0 0 0 0 0 0 3 8 10 13 15 15 15 16 15 12 7 3 3 3 3 3 2 1 1 1 1 1 3 3 3 3 2 1 0 0 0 0 0 0 0
0 0 0 0 0 0 0 0 0 0 0 0 0 0 2 6 8 10 17 29 41 46 44 33 19 8 4 3 3 3 3 2 2 2 2 2 2 3 3 3 2 1 0 0 0 0 0 0 0
0 0 0 0 0 0 0 0 0 0 0 0 0 0 1 3 4 9 25 52 74 80 77 65 41 20 12 8 6 3 2 1 1 3 3 2 2 3 3 3 2 1 0 0 0 0 1 1 0
0 0 0 0 0 0 0 0 0 0 0 0 0 0 1 1 2 6 25 56 77 84 81 69 53 37 24 14 8 3 1 1 1 3 3 3 3 3 3 3 3 1 1 1 1 1 2 2 1
0 0 0 0 0 0 0 0 0 0 0 0 0 0 0 0 1 3 14 31 46 54 50 39 37 34 22 11 6 3 1 1 2 3 3 3 3 3 3 3 3 3 2 2 2 3 3 3 2
0 0 0 0 0 0 0 0 0 0 0 0 0 0 0 1 2 2 4 8 15 19 16 11 11 13 8 3 3 2 1 2 3 3 3 3 3 2 3 3 3 3 3 3 3 3 3 3 3
0 0 0 0 0 0 0 0 0 0 0 0 0 0 0 1 2 2 1 1 2 3 2 1 0 0 0 1 2 2 1 2 3 3 3 3 4 4 4 3 3 4 4 4 3 3 3 3 3
0 0 0 0 0 0 0 0 0 0 0 0 0 0 0 0 1 1 0 0 0 0 0 0 0 0 0 1 2 2 2 2 3 3 3 4 4 5 4 4 4 5 6 4 3 2 3 3 3
0 0 0 0 0 0 0 0 0 0 0 0 0 0 0 0 0 0 0 0 0 0 0 0 0 0 0 0 1 1 1 2 3 3 3 3 4 4 4 4 4 4 4 3 1 1 1 3 3
0 0 0 0 0 0 0 0 0 0 0 0 0 0 0 0 0 0 0 0 0 0 0 0 0 0 0 0 0 0 1 2 3 3 3 3 3 3 3 3 4 3 3 3 1 1 1 2 3
0 0 0 0 0 0 0 0 0 0 0 0 0 0 0 0 0 0 0 0 0 0 0 0 0 1 1 1 1 0 0 1 1 3 3 3 3 3 3 3 3 3 3 3 3 2 1 2 2
0 0 0 0 0 0 0 0 0 0 0 0 0 0 0 0 1 1 1 1 0 0 0 0 1 2 2 2 1 0 0 0 1 3 4 4 3 3 3 3 3 3 2 2 2 2 2 1 1
0 0 0 0 0 0 0 0 0 0 0 0 0 0 0 1 2 3 3 3 2 2 2 1 2 3 4 3 3 2 2 2 3 4 4 4 4 3 3 3 3 1 1 1 1 1 1 1 0
0 0 0 0 0 0 0 0 0 0 0 0 0 0 0 2 3 6 7 6 5 5 4 3 3 4 5 6 5 5 5 5 5 4 4 4 3 3 2 3 2 1 0 0 0 0 1 1 1
0 0 0 0 0 0 0 0 0 0 0 0 0 0 0 1 4 8 9 7 6 5 3 2 2 3 4 5 5 5 5 6 6 4 3 3 3 4 3 3 2 1 1 2 1 1 2 2 2
0 0 0 0 0 0 0 0 0 0 0 0 0 0 0 1 5 8 8 6 5 3 2 1 1 1 1 2 2 2 3 5 6 5 4 3 4 5 5 3 2 2 2 3 2 2 2 3 3
Wind_Speed
4 3 5 4 3 3 8 6 4 4 4 5 4 5 6 7 8 5 6 4 7 9 10 10 10 10 10 11 11 11 12 13 13 13 12 13 14 14 13 12 12 11 10 12 12 11 14 14 13
3 3 4 3 2 6 7 4 5 6 5 2 2 3 3 7 5 7 8 8 9 8 8 9 9 10 11 12 13 13 13 14 14 13 12 13 13 14 13 12 12 12 12 13 11 11 14 13 12
2 2 3 1 2 5 5 3 5 4 2 2 3 4 4 5 5 8 9 11 9 8 7 9 9 10 10 12 13 13 15 15 14 13 14 13 13 13 12 12 12 12 12 12 11 11 12 12 12
2 2 2 2 6 4 2 2 1 1 2 1 3 3 4 4 5 7 11 10 8 8 8 11 8 9 9 11 13 13 14 14 14 13 14 13 12 12 12 12 12 11 11 11 12 13 13 12 12
2 3 2 5 5 4 2 2 2 3 3 3 3 3 5 6 7 10 11 8 8 8 8 10 8 9 9 10 11 12 12 13 13 13 14 14 14 12 10 11 11 10 10 10 11 12 13 13 12
2 3 2 4 3 3 2 1 3 3 3 2 1 2 6 8 10 11 10 8 7 7 7 9 9 8 8 10 11 11 11 12 13 13 13 13 14 12 10 9 9 9 9 9 10 12 14 13 12
3 2 3 3 2 2 3 2 4 5 5 5 2 1 5 9 10 11 9 8 7 7 7 7 11 10 8 8 9 10 10 11 11 12 11 13 14 11 10 9 9 8 8 9 9 11 12 12 12
3 2 4 3 1 3 4 4 3 4 3 2 1 2 3 11 13 11 9 8 8 7 7 6 8 8 9 10 8 8 9 10 10 11 11 13 12 10 9 7 8 7 8 8 8 9 10 13 12
4 3 4 3 2 3 3 4 2 1 2 1 2 2 5 13 15 13 10 9 8 7 7 7 8 8 7 7 8 7 8 10 10 10 12 10 8 8 6 6 6 5 7 8 7 8 10 13 12
4 1 3 2 3 3 2 4 4 3 2 4 4 5 7 14 16 14 12 11 10 9 8 7 7 7 8 6 6 5 7 8 9 9 9 8 7 6 6 7 4 5 6 7 7 8 7 8 7
1 2 2 1 4 5 5 4 3 5 5 5 5 4 11 15 15 14 12 11 10 9 8 8 7 7 7 6 5 4 5 5 7 9 8 7 7 6 6 5 5 4 4 5 7 8 5 6 6
1 3 2 3 4 6 7 6 5 5 6 5 4 1 11 15 16 15 14 13 12 10 9 9 9 8 8 6 5 4 4 5 5 7 9 6 5 5 5 3 3 1 1 2 3 4 6 7 7
0 2 1 2 4 6 7 8 7 9 6 5 4 5 11 14 15 16 14 14 13 12 11 10 9 8 8 7 6 6 5 5 5 6 7 7 5 5 4 4 4 2 2 3 5 6 6 7 7
2 2 1 2 3 2 5 4 4 7 4 6 5 8 10 13 15 16 15 14 14 13 13 12 10 8 8 7 7 5 4 4 5 5 7 8 6 5 4 3 3 3 2 2 4 8 6 6 7
2 3 3 3 6 5 4 4 3 4 7 10 8 8 7 11 14 16 15 14 13 12 12 12 10 9 8 8 6 5 6 6 6 6 8 9 7 5 4 3 3 3 3 4 4 7 7 6 7
3 5 6 4 5 2 4 7 6 4 8 10 8 8 6 9 13 14 13 13 13 12 13 12 9 8 8 7 7 6 6 7 6 6 6 8 8 7 5 5 3 3 2 3 4 5 7 7 6
6 7 8 5 0 3 7 10 8 5 6 7 6 7 7 7 11 14 13 13 13 14 14 14 12 10 9 8 6 5 6 6 5 6 6 7 8 8 6 5 4 4 2 3 4 4 5 6 6
6 9 9 7 4 9 13 12 11 9 6 7 6 8 8 6 7 9 11 12 14 15 13 12 10 8 7 6 6 4 5 5 5 5 5 5 5 6 5 5 6 4 2 3 3 5 4 6 6
7 10 12 9 6 9 14 13 14 13 7 5 5 7 8 8 6 4 9 12 13 14 13 10 8 8 7 8 9 8 8 7 6 6 7 6 6 6 6 4 4 4 3 3 4 3 6 6 7
11 13 13 9 5 8 14 16 17 12 6 5 6 6 6 6 4 3 5 9 12 12 12 13 9 5 4 4 5 6 7 7 8 6 7 7 7 7 5 7 5 5 5 5 5 5 5 6 8
13 12 11 11 11 12 11 15 11 3 2 3 2 2 2 3 1 3 6 8 10 9 9 9 9 7 6 5 4 3 5 6 6 6 6 6 6 6 7 7 6 6 6 5 5 5 7 6 7
14 7 8 10 12 10 8 14 9 5 3 1 1 1 0 1 2 3 5 7 7 5 7 8 7 6 7 6 5 6 6 8 8 7 6 6 7 6 7 7 7 7 5 5 4 4 6 6 8
11 3 8 10 12 14 10 8 7 1 4 4 2 1 1 3 4 5 6 7 7 7 8 6 5 4 5 5 6 3 4 7 5 7 8 8 7 5 5 3 4 8 10 8 6 5 7 7 9
7 7 10 10 9 11 2 7 9 5 6 6 3 2 2 5 6 9 8 6 6 7 7 7 5 6 7 6 4 7 10 9 8 8 8 8 6 7 7 6 6 8 9 10 10 8 8 7 8
10 10 9 8 7 4 3 7 8 5 5 7 7 5 3 6 7 8 8 6 5 6 6 6 9 9 9 9 12 14 12 11 11 9 7 7 7 9 10 10 11 11 11 10 9 9 8 8 8
11 10 8 7 9 8 3 7 4 4 5 4 3 3 2 1 2 5 8 8 7 7 6 7 9 11 10 10 12 14 13 9 8 8 7 7 8 8 7 9 10 10 10 10 9 8 8 9 12
6 6 2 9 8 9 6 5 6 2 2 4 5 3 2 2 4 6 8 9 10 10 7 6 8 10 11 11 12 11 9 7 6 7 7 6 7 7 7 8 8 9 8 9 8 7 8 9 9
3 0 3 6 7 8 7 7 6 4 7 3 2 3 1 1 5 8 10 11 13 13 11 8 5 3 5 6 3 4 6 6 5 4 5 6 7 6 7 8 9 8 8 9 8 7 8 12 12
6 7 6 7 6 6 8 4 2 3 5 4 1 1 1 3 6 7 10 11 12 13 12 11 8 6 6 5 4 5 7 6 5 5 5 5 6 8 9 9 9 9 10 11 10 10 9 10 9
8 10 10 10 8 6 7 9 1 3 4 5 3 3 3 4 3 6 9 10 12 12 10 9 9 7 4 1 3 5 4 3 3 6 6 5 6 7 7 8 8 9 9 11 12 12 10 11 10
Wind_Direction
232 287 292 263 225 113 80 71 41 48 70 55 31 7 21 30 3 33 103 123 136 141 132 141 142 139 135 130 132 133 130 130 126 123 121 120 117 115 112 107 103 101 95 90 84 87 93 87 80
307 304 259 253 210 111 97 95 66 44 67 77 48 11 44 66 57 111 130 124 132 128 127 129 131 129 131 130 133 133 131 129 125 125 123 120 121 114 111 105 99 97 93 89 83 89 97 85 79
278 299 292 290 76 74 92 105 69 56 127 322 9 38 37 65 107 124 117 136 132 121 121 110 122 124 125 126 129 131 132 129 127 129 124 123 122 115 109 101 96 94 91 88 84 93 92 83 79
285 234 203 129 93 82 43 91 48 9 182 264 329 78 88 75 109 109 125 136 124 120 113 104 118 121 126 130 134 134 134 132 131 130 122 122 119 114 108 100 93 89 89 87 87 93 92 83 77
242 263 163 117 101 103 63 10 291 304 333 35 329 65 100 108 104 124 132 134 130 121 109 110 116 123 129 134 136 135 138 135 132 131 126 129 124 113 103 96 90 87 88 89 91 91 93 82 74
234 243 153 108 84 75 86 65 272 313 4 65 267 96 105 130 142 140 141 142 123 113 111 115 122 126 130 138 139 143 143 138 140 134 129 127 117 114 105 96 87 86 86 88 91 90 93 81 73
252 224 117 116 57 6 37 352 314 343 344 21 4 18 115 150 149 147 147 133 128 125 134 143 136 133 130 133 143 142 142 142 142 136 135 113 108 111 113 99 88 83 85 92 94 92 94 84 76
289 239 137 125 47 358 10 332 348 322 352 44 283 340 95 141 151 151 146 142 136 137 142 151 128 139 155 145 140 140 143 143 141 134 119 112 118 117 108 110 92 83 87 96 100 93 92 85 78
261 227 133 111 19 11 4 325 16 294 275 225 245 318 72 138 157 159 155 158 151 151 154 155 149 158 146 141 133 146 137 137 140 135 128 138 122 126 139 101 97 104 101 103 108 103 106 108 94
242 189 83 44 351 343 332 317 334 277 265 250 221 167 143 158 170 172 171 170 168 165 159 163 163 158 154 151 146 157 141 156 152 156 153 143 152 127 120 116 125 115 108 113 118 118 153 156 114
261 63 77 16 331 307 290 272 264 291 302 313 316 131 162 175 181 184 184 178 173 171 161 164 167 164 174 155 149 169 155 170 162 162 162 154 140 148 149 145 159 144 162 153 154 164 165 108 103
164 78 343 341 339 299 288 289 273 273 304 333 316 199 171 183 186 193 189 186 180 175 171 166 173 168 183 158 161 176 180 183 166 174 172 154 162 162 150 146 119 131 95 144 161 143 113 107 109
136 29 329 299 297 291 278 273 289 285 298 312 266 209 187 192 193 195 194 189 185 179 175 172 178 176 176 168 177 179 175 200 175 180 168 162 168 160 162 152 149 123 109 122 139 135 142 127 107
13 326 340 10 13 352 304 285 260 276 327 299 262 234 208 200 199 196 198 195 190 183 175 173 175 176 175 175 180 175 163 174 168 176 184 172 171 164 166 165 156 153 129 105 143 136 134 120 111
295 278 251 304 351 358 300 239 238 346 322 291 273 258 239 211 204 204 199 198 189 188 175 174 172 177 172 171 168 164 166 164 171 180 191 181 172 181 167 198 188 169 163 157 152 132 130 126 120
258 258 288 341 344 36 297 316 343 25 318 310 305 298 268 233 219 215 204 199 182 187 181 168 174 179 171 166 159 170 178 171 175 192 201 200 188 198 180 192 190 162 155 169 157 143 143 142 135
219 285 303 290 223 320 301 304 306 320 304 299 310 326 310 261 231 223 206 201 181 185 184 169 174 181 173 166 168 175 184 183 189 197 202 217 200 184 175 181 183 141 143 166 165 164 138 136 135
304 305 293 280 295 305 299 292 293 297 285 288 315 335 335 320 277 233 205 195 181 184 177 173 165 168 167 161 170 175 202 190 194 188 200 218 191 178 160 184 188 150 181 179 195 145 131 148 162
295 285 278 282 303 294 293 296 297 296 283 277 321 344 352 355 337 255 185 182 182 176 162 169 154 160 172 180 178 178 195 181 181 178 184 181 186 187 190 185 180 168 215 204 201 160 152 161 143
274 271 269 273 289 289 297 298 289 291 293 315 333 350 348 346 21 89 157 186 189 177 166 154 139 129 160 179 177 194 195 186 179 172 188 189 192 189 201 195 195 184 173 188 189 186 185 163 176
257 263 280 294 305 279 286 289 297 320 236 259 298 356 320 323 334 138 179 200 201 183 175 160 138 153 137 142 148 177 189 184 180 186 202 201 210 198 212 219 201 188 166 160 165 182 208 186 199
254 246 275 288 290 297 313 303 315 359 317 254 243 279 131 279 260 195 207 218 202 189 187 166 159 157 122 146 160 184 204 204 197 198 200 194 198 203 217 215 199 167 138 129 138 192 210 208 194
252 280 276 283 285 291 287 285 310 35 319 357 339 234 236 247 244 216 209 215 196 190 182 170 130 130 125 146 140 160 250 239 207 211 209 203 192 197 198 210 226 187 168 160 176 204 215 217 207
240 245 240 245 264 274 15 310 309 17 339 331 7 48 261 247 235 218 210 213 202 179 169 156 147 160 148 144 149 228 225 238 229 219 222 214 200 203 191 191 234 240 215 193 194 199 214 210 225
224 236 249 232 232 276 66 283 284 342 330 319 330 345 314 272 259 237 210 183 173 159 145 159 190 184 177 176 197 226 237 249 251 240 226 228 227 226 211 193 207 221 225 226 217 199 205 208 220
204 244 274 290 298 309 248 254 302 336 328 330 343 337 323 319 224 198 192 171 159 150 155 186 195 195 190 201 222 236 240 244 249 244 236 222 230 238 223 225 218 223 222 224 215 203 203 212 220
184 222 310 300 279 277 267 275 287 161 82 78 65 38 15 82 152 163 171 158 154 155 163 197 203 196 189 193 208 221 230 223 218 216 211 205 219 213 212 221 225 217 212 219 208 208 201 207 231
291 48 216 233 273 283 278 267 268 351 360 42 54 29 35 220 180 168 166 168 165 160 156 153 156 191 199 166 170 195 196 187 201 201 201 196 211 206 200 212 228 228 211 202 197 207 194 203 200
185 213 234 277 270 274 285 284 68 322 353 356 25 202 337 254 214 186 176 178 172 160 158 159 171 194 214 170 158 221 212 186 192 227 232 220 221 216 224 225 227 212 202 197 196 210 196 213 212
278 271 260 254 247 239 268 289 36 260 285 291 283 247 262 281 199 189 187 188 187 186 195 202 205 202 213 185 174 220 252 239 236 248 253 248 245 235 233 236 235 222 210 203 202 209 203 209 216